FW4613 Weather Reports


time (UTC)temp
C
wind
direction
speed
KPH
gust
KPH
rain 1hr
cm
rain 24hr
cm
rain mn
cm
humidity
%
barometer
mb
20260504175035 21 64 3.2 30.6 0.00 0.00 0.00 40 1012.8
20260504174516 21 27 9.7 30.6 0.00 0.00 0.00 40 1012.9
20260504174049 20 8 4.8 24.1 0.00 0.00 0.00 41 1013.0
20260504173533 20 71 11.3 24.1 0.00 0.00 0.00 40 1013.1
20260504173049 20 24 8.0 24.1 0.00 0.00 0.00 40 1013.0
20260504172513 20 95 8.0 24.1 0.00 0.00 0.00 41 1013.1
20260504172051 20 21 6.4 24.1 0.00 0.00 0.00 40 1013.2
20260504171520 20 77 6.4 24.1 0.00 0.00 0.00 40 1013.2
20260504171055 20 13 9.7 32.2 0.00 0.00 0.00 39 1013.3
20260504170519 20 27 8.0 24.1 0.00 0.00 0.00 40 1013.3
20260504151018 18 49 6.4 27.4 0.00 0.00 0.00 45 1015.0
20260504150541 18 62 6.4 16.1 0.00 0.00 0.00 46 1015.0
20260504141018 16 58 1.6 17.7 0.00 0.00 0.00 57 1015.1
20260504140548 16 32 1.6 19.3 0.00 0.00 0.00 58 1015.1
20260504130510 15 116 4.8 12.9 0.00 0.00 0.00 62 1015.6
20260504120107 11 61 0.0 4.8 0.00 0.00 0.00 68 1015.8
20260504110558 9 60 0.0 0.0 0.00 0.00 0.00 69 1015.8
20260504100539 2 60 0.0 0.0 0.00 0.00 0.00 89 1015.6
20260504081509 3 60 0.0 0.0 0.00 0.00 0.00 83 1015.7
20260504081034 3 60 0.0 0.0 0.00 0.00 0.00 83 1015.7
20260504080552 3 60 0.0 0.0 0.00 0.00 0.00 83 1015.7
20260504050512 5 60 0.0 0.0 0.00 0.00 0.00 75 1015.6
20260504045513 5 60 0.0 0.0 0.00 0.00 0.00 76 1015.6
20260504045035 5 60 0.0 0.0 0.00 0.00 0.00 76 1015.6
20260504044552 5 60 0.0 0.0 0.00 0.00 0.00 75 1015.5
20260504044038 5 60 0.0 0.0 0.00 0.00 0.00 74 1015.6
20260504043600 5 60 0.0 0.0 0.00 0.00 0.00 73 1015.5
20260504043034 6 60 0.0 0.0 0.00 0.00 0.00 71 1015.5
20260504042554 6 60 0.0 0.0 0.00 0.00 0.00 73 1015.6
20260504042033 6 60 0.0 1.6 0.00 0.00 0.00 71 1015.4
20260504041506 6 60 0.0 1.6 0.00 0.00 0.00 71 1015.3
20260504041048 6 60 0.0 0.0 0.00 0.00 0.00 72 1015.3
20260504040525 6 60 0.0 0.0 0.00 0.00 0.00 71 1015.2
20260504040017 6 60 0.0 0.0 0.00 0.00 0.00 70 1015.2
20260504035540 6 60 0.0 0.0 0.00 0.00 0.00 71 1015.2
20260504035030 6 60 0.0 0.0 0.00 0.00 0.00 69 1015.1
20260504034509 6 60 0.0 0.0 0.00 0.00 0.00 68 1015.0
20260504034053 6 60 0.0 0.0 0.00 0.00 0.00 68 1015.0
20260504033543 6 60 0.0 0.0 0.00 0.00 0.00 68 1015.0
20260504033018 6 60 0.0 0.0 0.00 0.00 0.00 67 1015.0
20260504032540 6 60 0.0 0.0 0.00 0.00 0.00 67 1014.9
20260504032100 6 60 0.0 0.0 0.00 0.00 0.00 68 1015.0
20260504031521 7 60 0.0 0.0 0.00 0.00 0.00 65 1014.9
20260504031059 7 60 0.0 0.0 0.00 0.00 0.00 66 1015.0
20260504030513 7 60 0.0 0.0 0.00 0.00 0.00 65 1014.9
20260504030041 7 60 0.0 0.0 0.00 0.00 0.00 65 1014.9
20260504025551 7 60 0.0 0.0 0.00 0.00 0.00 64 1015.0
20260504025038 7 60 0.0 0.0 0.00 0.00 0.00 63 1015.0
20260504024601 8 60 0.0 0.0 0.00 0.00 0.00 64 1015.0
20260504024502 8 60 0.0 0.0 0.00 0.00 0.00 64 1015.0
20260504024024 8 60 0.0 0.0 0.00 0.00 0.00 60 1015.1
20260504023558 8 60 0.0 0.0 0.00 0.00 0.00 58 1015.1
20260504023019 9 60 0.0 0.0 0.00 0.00 0.00 58 1015.1
20260504022538 9 60 0.0 3.2 0.00 0.00 0.00 57 1015.1
20260504022016 9 60 0.0 3.2 0.00 0.00 0.00 57 1015.1
20260504021550 8 69 0.0 1.6 0.00 0.00 0.00 58 1015.1
20260504021009 8 44 0.0 0.0 0.00 0.00 0.00 59 1015.1
20260504020529 8 44 0.0 0.0 0.00 0.00 0.00 60 1015.0
20260504020009 8 44 0.0 0.0 0.00 0.00 0.00 59 1015.0
20260504015530 9 44 0.0 0.0 0.00 0.00 0.00 58 1014.9
20260504015048 9 44 0.0 0.0 0.00 0.00 0.00 58 1014.9
20260504014537 10 44 0.0 0.0 0.00 0.00 0.00 55 1015.0
20260504014047 10 44 0.0 0.0 0.00 0.00 0.00 52 1014.9
20260504013505 11 44 0.0 1.6 0.00 0.00 0.00 51 1015.0
20260504013042 11 44 0.0 1.6 0.00 0.00 0.00 50 1014.8
20260504012519 11 44 0.0 1.6 0.00 0.00 0.00 50 1014.7
20260504012042 11 44 0.0 1.6 0.00 0.00 0.00 49 1014.7
20260504011600 11 64 0.0 3.2 0.00 0.00 0.00 48 1014.6
20260504011501 11 64 0.0 4.8 0.00 0.00 0.00 48 1014.7
20260504011041 11 64 0.0 4.8 0.00 0.00 0.00 48 1014.6
20260504010517 11 55 0.0 1.6 0.00 0.00 0.00 48 1014.6
20260504010038 11 56 0.0 1.6 0.00 0.00 0.00 47 1014.6
20260504005553 12 55 0.0 1.6 0.00 0.00 0.00 47 1014.6
20260504005035 12 55 0.0 1.6 0.00 0.00 0.00 47 1014.4
20260504004553 12 54 0.0 1.6 0.00 0.00 0.00 46 1014.4
20260504004022 12 55 0.0 1.6 0.00 0.00 0.00 46 1014.3
20260504003559 12 51 0.0 1.6 0.00 0.00 0.00 45 1014.3
20260504003501 12 49 0.0 1.6 0.00 0.00 0.00 45 1014.3
20260504003023 12 49 0.0 3.2 0.00 0.00 0.00 44 1014.2
20260504002605 13 49 0.0 3.2 0.00 0.00 0.00 44 1014.1
20260504002501 13 50 0.0 4.8 0.00 0.00 0.00 43 1014.1
20260504002041 13 44 0.0 8.0 0.00 0.00 0.00 43 1014.0
20260504001602 13 54 3.2 9.7 0.00 0.00 0.00 42 1014.1
20260504001502 13 40 3.2 9.7 0.00 0.00 0.00 42 1014.0
20260504001024 13 65 3.2 9.7 0.00 0.00 0.00 42 1014.0
20260504000559 13 60 3.2 9.7 0.00 0.00 0.00 42 1013.9
20260504000501 13 75 1.6 9.7 0.00 0.00 0.00 42 1013.9
20260504000046 13 65 1.6 9.7 0.00 0.00 0.00 42 1013.9
20260503235600 13 65 3.2 9.7 0.00 0.00 0.00 41 1013.8
20260503235501 13 71 3.2 9.7 0.00 0.00 0.00 41 1013.8
20260503235023 13 84 3.2 11.3 0.00 0.00 0.00 41 1013.8
20260503234559 14 55 3.2 11.3 0.00 0.00 0.00 40 1013.7
20260503234501 14 57 4.8 11.3 0.00 0.00 0.00 40 1013.6
20260503234027 14 68 3.2 12.9 0.00 0.00 0.00 40 1013.7
20260503233548 14 60 3.2 12.9 0.00 0.00 0.00 39 1013.6
20260503233016 14 42 6.4 12.9 0.00 0.00 0.00 38 1013.6
20260503232549 15 49 3.2 16.1 0.00 0.00 0.00 39 1013.7
20260503232009 15 35 4.8 14.5 0.00 0.00 0.00 38 1013.5
20260503231530 15 80 3.2 14.5 0.00 0.00 0.00 38 1013.6
20260503231006 15 77 1.6 16.1 0.00 0.00 0.00 37 1013.5
20260503230529 15 70 6.4 16.1 0.00 0.00 0.00 37 1013.5
20260503230007 15 50 3.2 17.7 0.00 0.00 0.00 37 1013.4
20260503225530 15 53 4.8 17.7 0.00 0.00 0.00 36 1013.4
20260503225007 15 50 8.0 17.7 0.00 0.00 0.00 36 1013.4
20260503224533 15 49 4.8 19.3 0.00 0.00 0.00 36 1013.5
20260503224011 15 48 0.0 25.7 0.00 0.00 0.00 36 1013.5
20260503223533 15 14 6.4 25.7 0.00 0.00 0.00 35 1013.5
20260503223055 16 63 4.8 19.3 0.00 0.00 0.00 35 1013.5
20260503222537 16 141 6.4 19.3 0.00 0.00 0.00 36 1013.5
20260503222055 16 46 8.0 20.9 0.00 0.00 0.00 35 1013.5
20260503221515 16 34 9.7 20.9 0.00 0.00 0.00 35 1013.4
20260503221053 16 64 6.4 16.1 0.00 0.00 0.00 35 1013.4
20260503220511 16 25 1.6 20.9 0.00 0.00 0.00 35 1013.4
20260503220032 16 53 3.2 20.9 0.00 0.00 0.00 35 1013.5
20260503215510 16 16 4.8 25.7 0.00 0.00 0.00 34 1013.3
20260503215031 16 44 3.2 25.7 0.00 0.00 0.00 34 1013.4
20260503214548 16 54 12.9 24.1 0.00 0.00 0.00 34 1013.4
20260503214013 16 56 3.2 27.4 0.00 0.00 0.00 34 1013.2
20260503213547 16 35 4.8 27.4 0.00 0.00 0.00 33 1013.3
20260503213007 16 41 6.4 22.5 0.00 0.00 0.00 33 1013.3
20260503212527 16 123 4.8 14.5 0.00 0.00 0.00 33 1013.2
20260503212004 16 112 1.6 20.9 0.00 0.00 0.00 34 1013.1
20260503211524 16 87 4.8 24.1 0.00 0.00 0.00 34 1013.2
20260503211100 16 18 9.7 24.1 0.00 0.00 0.00 34 1013.3
20260503211002 16 74 12.9 24.1 0.00 0.00 0.00 33 1013.2
20260503210529 16 56 3.2 19.3 0.00 0.00 0.00 35 1013.2
20260503210050 15 12 9.7 20.9 0.00 0.00 0.00 33 1013.2
20260503205527 16 356 11.3 25.7 0.00 0.00 0.00 33 1013.3
20260503205011 16 143 9.7 25.7 0.00 0.00 0.00 34 1013.4
20260503204538 16 14 3.2 17.7 0.00 0.00 0.00 34 1013.4
20260503204053 16 321 4.8 17.7 0.00 0.00 0.00 35 1013.4
20260503203515 15 11 3.2 17.7 0.00 0.00 0.00 35 1013.4
20260503203052 16 228 6.4 17.7 0.00 0.00 0.00 34 1013.6
20260503202515 16 131 3.2 9.7 0.00 0.00 0.00 37 1013.4
20260503202056 15 92 3.2 14.5 0.00 0.00 0.00 37 1013.5
20260503201513 15 346 6.4 14.5 0.00 0.00 0.00 36 1013.5
20260503201039 15 4 3.2 12.9 0.00 0.00 0.00 36 1013.6
20260503200553 15 81 4.8 12.9 0.00 0.00 0.00 36 1013.6
20260503200014 15 88 4.8 29.0 0.00 0.00 0.00 37 1013.7
20260503195535 15 15 9.7 32.2 0.00 0.00 0.00 35 1013.9
20260503195015 15 58 12.9 32.2 0.00 0.00 0.00 36 1013.8
20260503194537 15 193 4.8 20.9 0.00 0.00 0.00 36 1013.9
20260503194016 15 49 3.2 25.7 0.00 0.00 0.00 36 1013.9
20260503193537 15 37 8.0 30.6 0.00 0.00 0.00 37 1014.2
20260503193102 15 146 16.1 30.6 0.00 0.00 0.00 36 1014.1
20260503192541 15 65 4.8 22.5 0.00 0.00 0.00 36 1014.2
20260503192020 15 25 8.0 20.9 0.00 0.00 0.00 35 1014.3
20260503191548 15 29 4.8 17.7 0.00 0.00 0.00 39 1014.2
20260503191015 15 59 3.2 14.5 0.00 0.00 0.00 36 1014.2
20260503190536 15 30 3.2 12.9 0.00 0.00 0.00 38 1014.3
20260503190020 15 139 3.2 17.7 0.00 0.00 0.00 37 1014.3
20260503185548 14 26 4.8 17.7 0.00 0.00 0.00 40 1014.4
20260503185015 13 32 3.2 27.4 0.00 0.00 0.00 37 1014.4
20260503184558 14 150 4.8 22.5 0.00 0.00 0.00 37 1014.3
20260503184011 13 58 11.3 20.9 0.00 0.00 0.00 36 1014.4
20260503183544 14 60 4.8 19.3 0.00 0.00 0.00 38 1014.5
20260503183009 14 60 8.0 27.4 0.00 0.00 0.00 36 1014.6
20260503182546 13 140 9.7 27.4 0.00 0.00 0.00 38 1014.6
20260503182012 13 83 9.7 22.5 0.00 0.00 0.00 37 1014.6
20260503181607 13 112 8.0 17.7 0.00 0.00 0.00 38 1014.7
20260503181013 13 62 8.0 17.7 0.00 0.00 0.00 38 1014.6
20260503180553 13 331 6.4 19.3 0.00 0.00 0.00 38 1014.7
20260503180035 13 156 6.4 22.5 0.00 0.00 0.00 37 1014.7
20260503175557 13 38 4.8 16.1 0.00 0.00 0.00 38 1014.6